Location: Unspecified
(0.0000°N, 0.0000°E)
Time: 14:12:55
(UTC+00:00)

Altair - Pass Details

Date: 31 October 2021
Orbit: 1502 x 1682 km, 47.2° (Epoch: 26 November)

Event Time Altitude Azimuth Distance (km) Brightness Sun altitude
Rises 10:17:09 0° 309° (NW) 4,869 9.9 64.3°
Reaches altitude 10° 10:20:21 10° 305° (NW) 3,901 9.5 65.0°
Maximum altitude 10:30:04 55° 230° (SW) 1,964 8.9 66.9°
Drops below altitude 10° 10:39:55 10° 155° (SSE) 3,937 10.1 68.8°
Sets 10:43:12 0° 150° (SSE) 4,917 10.4 69.3°
